ATLAS 5 CENTAUR DEB, 46657

Orbit data source: Space-Track

ATLAS 5 CENTAUR DEB, 46657 is space debris in HEO originally from a launch on Wed, 17 Oct 2018 UTC launched from the Air Force Eastern Test Range (AFETR). Debris objects in space refer to the collection of defunct objects orbiting the Earth. Examples of debris include non-operational satellites, rocket bodies, and fragments generated from explosions, collisions, or faulty payload assembly.

Loading next visibility...
Identifier
46657, 2018-079CK
Orbit
HEO
Country
Flag of USUS
Related business
Flag of USUnited Launch Alliance/Lockheed Martin (US)
Manufacturer
ULA Decatur
Mission
Spacecraft
Bus & Motor
Unknown
Mass
Unknown
Launch date (UTC)
2018-10-17 (8 years ago)
Launch vehicle
Unknown
Launch site
Air Force Eastern Test Range (AFETR)
Object type
Payload
Rocket body
Debris
Shape & HBR
Unknown shape, 1.1 m
Radar Cross Section
Large (>1 m²)

Expand to show TLE details & history
Last TLE update: 3 days ago

TLE from 3 days ago
0 ATLAS 5 CENTAUR DEB
1 46657U 18079CK  26170.02633749 -.00000110  00000-0  00000-0 0  9996
2 46657  12.6630  20.0558 5470444 347.8404   3.0352  1.70338912 35360
Epoch: 2026-06-19T00:37Z
TLE epoch observation values (Epoch: 2026-06-19T00:37:55.559Z)
Latitude
0.00014°
Longitude
103.30473°
Altitude
7,180.456 km
Speed
6.733 km/s
True Right ascension
01h 20m 11s
True Declination
0° 00' 01"
Sunlit
Object was in daylight at epoch
Visualization orbit readout
Latitude
Unknown
Longitude
Unknown
Altitude
Unknown
Speed
Unknown
Apparent Right ascension
Unknown
Apparent Declination
Unknown
Sunlit
N/A
Visualization observer readout
Local Sidereal Time
21:40:25
Azimuth
Unknown
Elevation
Unknown
Doppler factor
Unknown
Orbital elements
Apogee altitude
39,442.748 km
Perigee altitude
7,037.655 km
Semi-major axis
29,618.338 km
Eccentricity
0.54704
Inclination
12.663°
RAAN
20.0558°
Arg. of periapsis
347.8404°
True anomaly
12.31642°
Mean anomaly
3.0352°
Eccentric anomaly
6.68259°
Mean motion
0.4258 °/min
Orbital period
845.47 mins
BSTAR
0
Loading maneuver chart data...
Computing Atmospheric mass density...

Documentation

Showing up to 5 results
|